Stations météo

Publicité
Lille, France (7015): Température de l'air & dewpoint: 11.07.2018 21:00:00 - 17.07.2018 21:00:00 (CEST)Lille, France (7015): Température de l'air 5cm: 11.07.2018 21:00:00 - 17.07.2018 21:00:00 (CEST)Lille, France (7015): Température de l'air -20cm & Température de l'air -100cm: 11.07.2018 21:00:00 - 17.07.2018 21:00:00 (CEST)Lille, France (7015): Vitesse du vent & gusts: 11.07.2018 21:00:00 - 17.07.2018 21:00:00 (CEST)Lille, France (7015): Direction du vent: 11.07.2018 21:00:00 - 17.07.2018 21:00:00 (CEST)Lille, France (7015): reduced air pressure: 11.07.2018 21:00:00 - 17.07.2018 21:00:00 (CEST)Lille, France (7015): visibility: 11.07.2018 21:00:00 - 17.07.2018 21:00:00 (CEST)Lille, France (7015): Ensoleillement: 11.07.2018 21:00:00 - 17.07.2018 21:00:00 (CEST)Lille, France (7015): Quantités de précipitations: 11.07.2018 21:00:00 - 17.07.2018 21:00:00 (CEST)
Date & Time tt [°C] td [°C] tt 5cm [°C] tt -20cm [°C] tt -100cm [°C] ff [km/h] ff [knt] fx [km/h] fx [knt] dd ppp [hPa] vv [km] sd [min] rr [mm]
17.07.2018 21:00:00 22,0 7,8 22,4 26,2 19,5 16 9 28 15 W 1017,8 16 37 0,0
17.07.2018 20:00:00 23,2 7,7 24,4 26,6 19,5 14 8 36 20 W 1017,4 16 56 0,0
17.07.2018 19:00:00 23,6 8,1 24,9 26,7 19,5 19 10 45 25 W 1017,3 13 46 0,0
17.07.2018 18:00:00 24,4 8,8 24,8 26,5 19,5 20 11 37 20 W 1017,2 17 37 0,0
17.07.2018 17:00:00 24,6 8,9 27,2 26,2 19,5 22 12 40 22 W 1017,1 12 47 0,0
17.07.2018 16:00:00 24,4 8,8 27,9 25,5 19,5 20 11 53 29 W 1017,2 11 53 0,0
17.07.2018 15:00:00 25,2 9,5 27,4 24,7 19,5 29 15 46 25 W 1017,1 10 52 0,0
17.07.2018 14:00:00 24,4 9,5 29,6 23,8 19,5 22 12 38 20 W 1017,0 11 60 0,0
17.07.2018 13:00:00 24,0 9,2 25,1 23,0 19,4 23 12 46 25 WSW 1017,0 12 57 0,0
17.07.2018 12:00:00 23,0 9,7 25,5 22,3 19,4 22 12 43 23 WSW 1016,7 13 56 0,0
17.07.2018 11:00:00 23,1 10,2 22,4 21,7 19,4 22 12 41 22 WSW 1016,3 15 52 0,0
17.07.2018 10:00:00 20,6 12,0 22,0 21,4 19,4 17 9 31 17 WSW 1016,1 14 27 0,0
17.07.2018 09:00:00 20,1 14,9 20,6 21,2 19,4 14 7 26 14 W 1015,8 10 55 0,0
17.07.2018 08:00:00 18,0 15,4 16,6 21,2 19,4 11 6 23 13 WSW 1015,4 9 36 0,0
17.07.2018 07:00:00 16,2 14,6 15,1 21,4 19,4 5 3 11 6 SW 1015,0 8 12 0,0
17.07.2018 06:00:00 15,7 13,2 14,8 21,7 19,4 9 5 12 6 WSW 1014,7 9 0 0,0
17.07.2018 05:00:00 16,1 12,8 - - - 5 3 16 9 WSW 1014,6 12 - -
17.07.2018 04:00:00 16,4 12,4 15,7 22,4 19,4 8 5 15 8 WSW 1014,7 15 0 0,0
17.07.2018 03:00:00 17,2 11,0 16,2 22,9 19,4 8 5 14 7 SW 1014,8 36 0 0,0
17.07.2018 02:00:00 19,0 10,3 18,4 23,2 19,4 8 4 19 10 WSW 1014,7 60 0 0,0
17.07.2018 01:00:00 19,8 10,5 18,8 23,6 19,4 9 5 15 8 W 1014,7 60 0 0,0
17.07.2018 00:00:00 20,9 11,2 20,5 23,9 19,3 11 6 27 15 W 1014,4 60 0 0,0
16.07.2018 23:00:00 21,8 11,5 21,5 24,4 19,4 14 8 26 14 W 1014,2 55 0 0,0
16.07.2018 22:00:00 23,0 11,1 22,2 24,9 19,3 19 10 30 16 W 1013,7 53 0 0,0
16.07.2018 21:00:00 26,1 11,8 25,8 25,2 19,3 10 6 21 11 SW 1012,8 45 0 0,0
16.07.2018 20:00:00 26,8 11,7 28,4 25,3 19,4 6 3 11 6 NNE 1012,3 57 3 0,0
16.07.2018 19:00:00 26,8 10,5 28,3 25,4 19,3 2 1 14 8 NE 1012,4 59 0 0,0
16.07.2018 18:00:00 26,7 10,8 26,8 25,5 19,3 11 6 21 11 NW 1012,3 55 0 0,0
16.07.2018 17:00:00 26,8 10,5 28,7 25,7 19,3 15 8 35 19 WNW 1012,3 56 0 0,0
16.07.2018 16:00:00 26,9 11,8 28,5 25,8 19,3 23 12 36 20 WNW 1012,5 50 0 0,0
16.07.2018 15:00:00 29,3 12,3 32,0 25,6 19,3 23 12 34 19 W 1012,4 42 3 0,0
16.07.2018 14:00:00 29,6 9,7 33,2 24,8 19,3 6 3 36 19 N 1012,6 30 37 0,0
16.07.2018 13:00:00 29,2 9,3 35,0 23,8 19,3 10 5 26 14 E 1012,9 36 60 0,0
16.07.2018 12:00:00 28,3 10,5 28,8 22,9 19,3 7 4 16 9 ENE 1013,2 36 37 0,0
16.07.2018 11:00:00 25,7 12,5 27,4 22,4 19,3 4 2 10 5 NNE 1013,3 25 8 0,0
16.07.2018 10:00:00 24,6 12,9 23,7 21,9 19,3 2 1 11 6 N 1013,4 24 38 0,0
16.07.2018 09:00:00 21,9 13,0 23,4 21,7 19,3 5 3 8 4 ENE 1013,6 17 43 0,0
16.07.2018 08:00:00 19,4 13,1 17,5 21,7 19,3 4 2 6 4 SSE 1013,7 16 22 0,0
16.07.2018 07:00:00 17,7 12,6 15,5 21,9 19,3 3 2 10 5 ENE 1013,6 21 10 0,0
16.07.2018 06:00:00 17,0 11,7 13,3 22,3 19,3 5 3 10 5 SW 1013,8 20 0 0,0
16.07.2018 05:00:00 17,0 11,5 12,7 22,6 19,3 3 2 14 8 NNW 1013,7 37 0 0,0
16.07.2018 04:00:00 17,8 10,9 12,4 23,1 19,2 5 3 7 4 WSW 1013,8 43 0 0,0
16.07.2018 03:00:00 19,0 10,5 13,8 23,6 19,2 0 0 8 4 N 1014,0 53 0 0,0
16.07.2018 02:00:00 21,4 10,8 20,6 24,0 19,2 6 4 10 6 NE 1014,3 60 0 0,0
16.07.2018 01:00:00 21,8 11,2 20,9 24,5 19,2 8 4 15 8 NNE 1014,6 60 0 0,0
16.07.2018 00:00:00 22,9 11,0 20,8 25,0 19,2 11 6 15 8 NNE 1014,8 60 0 0,0
15.07.2018 23:00:00 22,8 9,9 21,3 25,7 19,2 10 5 16 9 NNE 1014,8 60 0 0,0
15.07.2018 22:00:00 25,0 8,9 24,1 26,5 19,2 13 7 27 14 NNE 1014,5 60 0 0,0
15.07.2018 21:00:00 26,9 9,3 27,6 27,2 19,2 19 10 34 19 NNE 1014,1 38 29 0,0
15.07.2018 20:00:00 28,5 8,7 31,9 27,6 19,2 16 9 24 13 NE 1013,7 39 60 0,0
15.07.2018 19:00:00 29,3 8,9 33,1 27,6 19,2 15 8 31 17 NE 1013,6 42 58 0,0
15.07.2018 18:00:00 28,7 9,4 30,5 27,6 19,2 11 6 29 15 NNE 1013,8 52 38 0,0
15.07.2018 17:00:00 29,8 9,3 33,1 27,1 19,2 14 8 25 14 NE 1014,3 48 49 0,0
15.07.2018 16:00:00 30,4 9,3 31,1 26,4 19,2 8 4 21 12 SW 1014,7 36 38 0,0
15.07.2018 15:00:00 29,7 10,3 33,5 25,6 19,2 15 8 29 15 NNE 1015,1 52 49 0,0
15.07.2018 14:00:00 28,9 10,1 35,3 24,6 19,2 14 7 41 22 N 1015,7 22 60 0,0
15.07.2018 13:00:00 28,3 10,0 34,2 23,5 19,2 10 6 26 14 NE 1016,2 42 60 0,0
15.07.2018 12:00:00 27,5 10,7 33,5 22,7 19,2 7 4 30 16 NE 1016,6 43 60 0,0
15.07.2018 11:00:00 26,9 10,1 30,1 21,8 19,2 7 4 17 9 ENE 1016,7 30 60 0,0
15.07.2018 10:00:00 24,2 13,1 25,9 21,4 19,1 6 4 16 9 NE 1017,0 29 60 0,0
15.07.2018 09:00:00 21,4 12,8 23,0 21,2 19,2 6 4 13 7 E 1017,1 21 60 0,0
15.07.2018 08:00:00 19,5 12,0 16,1 21,3 19,2 7 4 12 7 ENE 1017,0 22 60 0,0
15.07.2018 07:00:00 15,8 12,5 12,5 21,5 19,2 0 0 7 4 N 1017,0 17 14 0,0
15.07.2018 06:00:00 15,8 11,8 12,4 21,9 19,2 2 1 12 6 E 1017,0 17 0 0,0
15.07.2018 05:00:00 17,5 12,6 16,5 22,2 19,2 5 3 8 4 NE 1017,2 20 0 0,0
15.07.2018 04:00:00 18,0 12,7 16,9 22,6 19,2 8 4 10 6 NE 1017,5 22 0 0,0
15.07.2018 03:00:00 18,4 13,7 17,4 23,0 19,1 8 4 13 7 NE 1017,8 21 0 0,0
15.07.2018 02:00:00 19,1 13,9 18,6 23,5 19,2 11 6 17 9 NNE 1018,0 23 0 0,0
15.07.2018 01:00:00 20,0 14,1 19,5 24,0 19,2 13 7 18 10 NNE 1018,2 28 0 0,0
15.07.2018 00:00:00 21,1 13,8 20,4 24,6 19,2 12 7 23 13 NNE 1018,2 37 0 0,0
14.07.2018 23:00:00 22,2 13,0 21,5 25,2 19,2 16 9 24 13 NNE 1018,0 58 0 0,0
14.07.2018 22:00:00 23,9 11,2 23,4 26,0 19,1 17 9 29 16 NNE 1017,8 60 0 0,0
14.07.2018 21:00:00 26,0 10,6 26,8 26,7 19,1 14 8 24 13 NNE 1017,3 51 13 0,0
14.07.2018 20:00:00 27,2 10,4 30,5 27,2 19,1 13 7 23 12 NE 1017,3 33 58 0,0
14.07.2018 19:00:00 28,1 10,8 32,6 27,3 19,1 10 5 24 13 NE 1017,6 55 56 0,0
14.07.2018 18:00:00 28,4 10,1 31,3 27,1 19,1 6 4 20 11 NNE 1017,9 55 43 0,0
14.07.2018 17:00:00 28,2 9,9 31,0 26,5 19,1 12 6 33 18 N 1018,2 54 54 0,0
14.07.2018 16:00:00 28,4 10,6 34,8 25,7 19,1 12 6 33 18 ENE 1018,6 45 60 0,0
14.07.2018 15:00:00 27,2 10,4 33,8 24,6 19,1 11 6 31 17 NE 1019,1 52 60 0,0
14.07.2018 14:00:00 26,6 10,3 32,1 23,5 19,1 10 6 24 13 N 1019,6 43 60 0,0
14.07.2018 13:00:00 25,5 10,9 32,1 22,4 19,1 8 5 23 12 NNE 1019,9 20 60 0,0
14.07.2018 12:00:00 24,2 12,5 30,8 21,5 19,1 9 5 24 13 ENE 1020,5 12 60 0,0
14.07.2018 11:00:00 22,6 13,6 26,5 20,8 19,1 9 5 21 11 NNE 1021,0 10 56 0,0
14.07.2018 10:00:00 20,8 14,4 22,6 20,3 19,1 10 5 18 10 N 1021,1 16 52 0,0
14.07.2018 09:00:00 18,8 14,3 21,5 20,1 19,1 9 5 17 9 NNE 1021,2 9 60 0,0
14.07.2018 08:00:00 16,6 14,1 15,0 20,1 19,1 10 6 17 9 NNE 1021,0 9 60 0,0
14.07.2018 07:00:00 14,4 13,3 11,9 20,4 19,1 4 2 11 6 N 1021,0 7 15 0,0
14.07.2018 06:00:00 13,7 12,4 10,9 20,7 19,1 4 2 8 4 NW 1021,0 8 0 0,0
14.07.2018 05:00:00 14,2 12,6 11,8 21,0 19,1 2 1 9 5 NW 1021,1 11 0 0,0
14.07.2018 04:00:00 14,7 12,7 12,6 21,4 19,1 6 4 14 7 N 1021,2 13 0 0,0
14.07.2018 03:00:00 15,1 12,4 12,8 21,8 19,1 4 2 16 9 NE 1021,4 14 0 0,0
14.07.2018 02:00:00 15,9 12,8 15,2 22,2 19,1 10 6 19 10 N 1021,5 18 0 0,0
14.07.2018 01:00:00 16,5 12,8 15,4 22,7 19,1 7 4 19 10 N 1021,6 23 0 0,0
14.07.2018 00:00:00 17,5 12,6 16,6 23,3 19,1 13 7 22 12 N 1021,3 19 0 0,0
13.07.2018 23:00:00 18,9 12,2 18,1 23,9 19,1 9 5 23 12 N 1021,0 56 0 0,0
13.07.2018 22:00:00 20,5 12,2 19,7 24,6 19,1 14 8 26 14 N 1020,4 53 0 0,0
13.07.2018 21:00:00 22,4 12,9 23,3 25,2 19,1 18 10 32 17 N 1020,1 39 5 0,0
13.07.2018 20:00:00 23,8 13,3 27,0 25,5 19,1 21 11 34 18 N 1019,9 32 60 0,0
13.07.2018 19:00:00 24,8 14,0 29,7 25,6 19,1 21 11 37 20 NNW 1019,9 36 58 0,0
13.07.2018 18:00:00 25,6 13,4 28,5 25,5 19,1 20 11 35 19 N 1019,9 40 34 0,0
13.07.2018 17:00:00 25,8 11,9 29,2 25,3 19,1 13 7 29 16 NNW 1020,2 37 35 0,0
13.07.2018 16:00:00 26,9 11,8 33,3 24,4 19,1 10 5 27 14 NNE 1020,5 34 60 0,0
13.07.2018 15:00:00 25,7 12,5 31,8 23,3 19,1 11 6 27 14 N 1020,8 30 60 0,0
13.07.2018 14:00:00 24,7 12,6 30,3 22,1 19,1 9 5 26 14 NNE 1021,4 20 60 0,0
13.07.2018 13:00:00 22,5 12,4 26,2 21,1 19,1 12 6 21 12 N 1021,8 20 38 0,0
13.07.2018 12:00:00 21,2 13,6 24,0 20,4 19,1 13 7 22 12 NE 1022,1 11 42 0,0
13.07.2018 11:00:00 18,4 13,9 18,4 20,1 19,1 9 5 16 8 NNE 1022,1 13 1 0,0
13.07.2018 10:00:00 16,9 14,4 16,3 20,2 19,2 10 6 18 10 N 1022,0 11 0 0,2
13.07.2018 09:00:00 16,3 14,1 16,3 20,2 19,1 9 5 22 12 N 1021,9 8 0 0,0
13.07.2018 08:00:00 15,9 14,1 15,7 20,3 19,1 8 4 23 12 NNE 1021,6 9 0 0,0
13.07.2018 07:00:00 15,6 13,8 15,2 20,4 19,2 8 4 17 9 N 1021,6 8 0 0,0
13.07.2018 06:00:00 15,4 13,6 15,1 20,6 19,1 7 4 13 7 N 1021,7 8 0 0,0
13.07.2018 05:00:00 15,2 13,4 14,1 20,8 19,1 8 4 14 8 N 1021,7 11 0 0,0
13.07.2018 04:00:00 14,8 13,0 13,5 21,1 19,2 7 4 11 6 N 1021,7 13 0 0,0
13.07.2018 03:00:00 15,1 12,8 14,1 21,4 19,2 5 3 15 8 N 1021,5 15 0 0,0
13.07.2018 02:00:00 15,7 12,6 15,0 21,8 19,1 8 5 18 10 N 1021,5 21 0 0,0
13.07.2018 01:00:00 16,3 12,6 15,9 22,2 19,2 9 5 18 10 N 1021,5 27 0 0,0
13.07.2018 00:00:00 17,0 12,7 16,9 22,6 19,2 13 7 20 11 N 1021,4 20 0 0,0
12.07.2018 23:00:00 17,5 13,2 16,9 23,2 19,2 10 6 22 12 NNW 1021,2 32 0 0,0
12.07.2018 22:00:00 18,7 13,1 18,2 23,8 19,2 15 8 25 13 NNW 1020,8 42 0 0,0
12.07.2018 21:00:00 20,6 13,1 21,7 24,4 19,2 18 10 31 17 NNW 1020,3 25 16 0,0
12.07.2018 20:00:00 22,0 13,4 25,3 24,7 19,2 20 11 38 21 NNW 1020,1 22 60 0,0
12.07.2018 19:00:00 23,0 13,5 27,8 24,8 19,2 24 13 41 22 NNW 1019,7 26 60 0,0
12.07.2018 18:00:00 23,9 13,7 26,5 24,6 19,2 21 11 36 20 NNW 1019,7 30 46 0,0
12.07.2018 17:00:00 25,1 13,9 27,0 24,1 19,2 19 11 34 19 N 1019,9 33 33 0,0
12.07.2018 16:00:00 24,0 13,2 26,3 23,8 19,2 21 11 39 21 NNW 1020,2 27 22 0,0
12.07.2018 15:00:00 23,7 13,3 27,7 23,1 19,2 15 8 33 18 NNW 1020,2 38 38 0,0
12.07.2018 14:00:00 23,8 13,6 28,2 22,2 19,2 15 8 31 17 N 1020,5 19 55 0,0
12.07.2018 13:00:00 22,2 13,5 26,4 21,4 19,2 13 7 27 14 NNW 1020,7 20 35 0,0
12.07.2018 12:00:00 21,7 13,8 27,5 20,6 19,2 13 7 26 14 N 1020,8 14 56 0,0
12.07.2018 11:00:00 20,2 14,1 21,3 20,0 19,2 13 7 23 13 NNW 1020,6 13 26 0,0
12.07.2018 10:00:00 17,9 14,0 18,2 19,8 19,2 12 7 19 11 N 1020,8 12 0 0,0
12.07.2018 09:00:00 16,7 13,6 17,2 19,7 19,2 10 5 18 10 NNW 1020,7 12 0 0,0
12.07.2018 08:00:00 16,2 13,5 16,3 19,7 19,2 9 5 16 9 NNW 1020,2 11 0 0,0
12.07.2018 07:00:00 15,8 13,5 15,5 19,7 19,2 9 5 18 10 N 1019,9 11 0 0,0
12.07.2018 06:00:00 15,3 13,0 14,8 19,8 19,2 11 6 19 11 N 1019,7 11 0 0,0
12.07.2018 05:00:00 14,8 12,7 14,0 19,9 19,2 9 5 18 10 N 1019,9 9 0 0,0
12.07.2018 04:00:00 14,4 12,8 13,8 20,1 19,2 9 5 23 13 N 1019,9 10 0 0,0
12.07.2018 03:00:00 14,7 13,6 13,6 20,4 19,2 11 6 17 9 N 1019,7 8 0 0,0
12.07.2018 02:00:00 14,8 13,2 14,1 20,7 19,2 6 4 18 10 NNW 1019,9 11 0 0,0
12.07.2018 01:00:00 15,2 12,9 14,4 21,1 19,2 11 6 27 14 N 1020,1 16 0 0,0
12.07.2018 00:00:00 16,0 12,0 15,3 21,5 19,2 14 8 23 13 N 1020,2 34 0 0,0
11.07.2018 23:00:00 16,7 11,4 15,9 22,0 19,3 14 8 24 13 NNW 1020,2 47 0 0,0
11.07.2018 22:00:00 18,4 10,7 17,7 22,5 19,3 17 9 27 14 N 1019,7 57 0 0,0
11.07.2018 21:00:00 19,8 9,4 20,7 23,0 19,3 21 11 36 19 N 1019,3 26 7 0,0

tt = Température de l'air
td = dewpoint
tt 5cm = Température de l'air 5cm
tt -20cm = Température de l'air -20cm
tt -100cm = Température de l'air -100cm
ff = Vitesse du vent
fx = gusts
dd = Direction du vent
ppp = reduced air pressure
vv = visibility
sd = Ensoleillement
rr = Quantités de précipitations

stations d'obs. à proximité